Location: *
(45.9500°N, 9.0833°E)
Time: 23:18:13
(UTC+00:00)

Vanguard 2 Rocket - Pass Details

Date: 14 June 2021
Orbit: 555 x 3325 km, 32.9° (Epoch: 03 August)

Event Time Altitude Azimuth Distance (km) Brightness Sun altitude
Rises 20:24:22 0° 236° (SW) 7,176 11.6 -9.7°
Reaches altitude 10° 20:29:57 10° 230° (SW) 5,935 11.0 -10.3°
Maximum altitude 20:45:10 40° 170° (S) 3,067 9.1 -11.9°
Drops below altitude 10° 20:54:53 10° 106° (ESE) 3,843 9.6 -12.9°
Sets 20:57:39 0° 98° (E) 4,505 10.1 -13.2°
